Location: Albuquerque Trailhead
(34.7934°N, 106.3736°W)
Time: 05:02:16
(UTC+00:00)

Cosmos 1125 Rocket - Pass Details

Date: 20 June 2021
Orbit: 757 x 780 km, 74.0° (Epoch: 29 July)

Event Time Altitude Azimuth Distance (km) Brightness Sun altitude
Rises 09:29:23 0° 347° (NNW) 3,243 7.4 -22.7°
Reaches altitude 10° 09:31:49 10° 352° (N) 2,316 6.6 -22.4°
Maximum altitude 09:36:59 55° 70° (ENE) 928 4.1 -21.8°
Drops below altitude 10° 09:42:08 10° 148° (SSE) 2,317 5.8 -21.1°
Enters shadow 09:42:29 - 149° (SSE) 2,449 5.9 -21.1°
